Time,TemperatureF,DewpointF,PressureIn,WindDirection,WindDirectionDegrees,WindSpeedMPH,WindSpeedGustMPH,Humidity,HourlyPrecipIn,Conditions,Clouds,dailyrainin,SoftwareType,DateUTC
2013-04-04 00:02:00,41.0,30.0,30.20,SSW,192,3.0,7.0,64,0.00,,,0.00,,2013-04-04 05:02:00,
2013-04-04 00:12:00,41.0,30.0,30.20,SSW,192,3.0,7.0,64,0.00,,,0.00,,2013-04-04 05:12:00,
2013-04-04 00:23:00,40.0,29.0,30.20,SSW,192,3.0,8.0,64,0.00,,,0.00,,2013-04-04 05:23:00,
2013-04-04 00:32:00,40.0,29.0,30.19,South,188,3.0,6.0,65,0.00,,,0.00,,2013-04-04 05:32:00,
2013-04-04 00:42:00,40.0,29.0,30.19,South,188,3.0,6.0,65,0.00,,,0.00,,2013-04-04 05:42:00,
2013-04-04 00:53:00,39.0,28.0,30.19,South,188,4.0,7.0,65,0.00,,,0.00,,2013-04-04 05:53:00,
2013-04-04 01:02:00,39.0,29.0,30.19,South,186,4.0,6.0,66,0.00,,,0.00,,2013-04-04 06:02:00,
2013-04-04 01:12:00,39.0,29.0,30.19,South,186,4.0,6.0,66,0.00,,,0.00,,2013-04-04 06:12:00,
2013-04-04 01:22:00,38.0,28.0,30.18,South,189,2.0,8.0,67,0.00,,,0.00,,2013-04-04 06:22:00,
2013-04-04 01:32:00,38.0,28.0,30.17,South,190,3.0,7.0,68,0.00,,,0.00,,2013-04-04 06:32:00,
2013-04-04 01:42:00,38.0,28.0,30.17,South,190,3.0,7.0,68,0.00,,,0.00,,2013-04-04 06:42:00,
2013-04-04 01:52:00,37.0,27.0,30.17,SW,216,4.0,9.0,68,0.00,,,0.00,,2013-04-04 06:52:00,
2013-04-04 02:02:00,37.0,28.0,30.17,SSW,195,4.0,7.0,69,0.00,,,0.00,,2013-04-04 07:02:00,
2013-04-04 02:12:00,37.0,28.0,30.17,SSW,195,4.0,7.0,69,0.00,,,0.00,,2013-04-04 07:12:00,
2013-04-04 02:22:00,37.0,28.0,30.16,SSW,202,3.0,6.0,70,0.00,,,0.00,,2013-04-04 07:22:00,
2013-04-04 02:32:00,36.0,28.0,30.16,South,188,4.0,5.0,72,0.00,,,0.00,,2013-04-04 07:32:00,
2013-04-04 02:42:00,36.0,28.0,30.16,South,188,4.0,5.0,72,0.00,,,0.00,,2013-04-04 07:42:00,
2013-04-04 02:52:00,36.0,28.0,30.16,SSW,201,2.0,6.0,73,0.00,,,0.00,,2013-04-04 07:52:00,
2013-04-04 03:02:00,36.0,28.0,30.16,SSW,201,2.0,5.0,73,0.00,,,0.00,,2013-04-04 08:02:00,
2013-04-04 03:12:00,36.0,28.0,30.16,SSW,201,2.0,5.0,73,0.00,,,0.00,,2013-04-04 08:12:00,
2013-04-04 03:22:00,36.0,28.0,30.16,SSW,212,2.0,6.0,72,0.00,,,0.00,,2013-04-04 08:22:00,
2013-04-04 03:32:00,35.0,27.0,30.16,SSW,212,2.0,5.0,73,0.00,,,0.00,,2013-04-04 08:32:00,
2013-04-04 03:43:00,35.0,27.0,30.16,SSW,212,2.0,5.0,73,0.00,,,0.00,,2013-04-04 08:43:00,
2013-04-04 03:52:00,35.0,28.0,30.16,SSW,212,3.0,5.0,74,0.00,,,0.00,,2013-04-04 08:52:00,
2013-04-04 04:02:00,34.0,27.0,30.16,SSW,212,3.0,4.0,76,0.00,,,0.00,,2013-04-04 09:02:00,
2013-04-04 04:12:00,34.0,27.0,30.16,SSW,212,3.0,4.0,76,0.00,,,0.00,,2013-04-04 09:12:00,
2013-04-04 04:22:00,34.0,28.0,30.16,SSW,212,2.0,5.0,77,0.00,,,0.00,,2013-04-04 09:22:00,
2013-04-04 04:33:00,33.0,27.0,30.16,SSW,212,1.0,4.0,79,0.00,,,0.00,,2013-04-04 09:33:00,
2013-04-04 04:43:00,33.0,27.0,30.16,SSW,212,1.0,4.0,79,0.00,,,0.00,,2013-04-04 09:43:00,
2013-04-04 04:54:00,32.0,27.0,30.16,SSW,212,2.0,3.0,80,0.00,,,0.00,,2013-04-04 09:54:00,
2013-04-04 05:03:00,32.0,27.0,30.16,SSW,212,1.0,4.0,82,0.00,,,0.00,,2013-04-04 10:03:00,
2013-04-04 05:12:00,32.0,27.0,30.16,SSW,212,1.0,4.0,82,0.00,,,0.00,,2013-04-04 10:12:00,
2013-04-04 05:23:00,31.0,26.0,30.16,SSW,212,2.0,4.0,82,0.00,,,0.00,,2013-04-04 10:23:00,
2013-04-04 05:33:00,31.0,27.0,30.15,SSW,212,2.0,4.0,84,0.00,,,0.00,,2013-04-04 10:33:00,
2013-04-04 05:42:00,31.0,27.0,30.15,SSW,212,2.0,4.0,84,0.00,,,0.00,,2013-04-04 10:42:00,
2013-04-04 05:53:00,31.0,27.0,30.15,SSW,212,3.0,5.0,86,0.00,,,0.00,,2013-04-04 10:53:00,
2013-04-04 06:02:00,31.0,27.0,30.14,SSW,212,1.0,4.0,86,0.00,,,0.00,,2013-04-04 11:02:00,
2013-04-04 06:12:00,31.0,27.0,30.14,SSW,212,1.0,4.0,86,0.00,,,0.00,,2013-04-04 11:12:00,
2013-04-04 06:22:00,32.0,29.0,30.14,SSW,212,4.0,6.0,87,0.00,,,0.00,,2013-04-04 11:22:00,
2013-04-04 06:32:00,31.0,27.0,30.14,South,180,4.0,7.0,86,0.00,,,0.00,,2013-04-04 11:32:00,
2013-04-04 06:42:00,31.0,27.0,30.14,South,180,4.0,7.0,86,0.00,,,0.00,,2013-04-04 11:42:00,
2013-04-04 06:54:00,31.0,28.0,30.14,SSW,192,2.0,5.0,87,0.00,,,0.00,,2013-04-04 11:54:00,
2013-04-04 07:02:00,31.0,28.0,30.14,SSW,207,4.0,6.0,88,0.00,,,0.00,,2013-04-04 12:02:00,
2013-04-04 07:12:00,31.0,28.0,30.14,SSW,207,4.0,6.0,88,0.00,,,0.00,,2013-04-04 12:12:00,
2013-04-04 07:22:00,31.0,28.0,30.14,SW,216,3.0,5.0,87,0.00,,,0.00,,2013-04-04 12:22:00,
2013-04-04 07:32:00,31.0,27.0,30.15,SW,231,4.0,6.0,86,0.00,,,0.00,,2013-04-04 12:32:00,
2013-04-04 07:43:00,31.0,27.0,30.15,SW,231,4.0,6.0,86,0.00,,,0.00,,2013-04-04 12:43:00,
2013-04-04 07:52:00,31.0,28.0,30.15,SW,231,2.0,5.0,87,0.00,,,0.00,,2013-04-04 12:52:00,
2013-04-04 08:02:00,31.0,28.0,30.14,SW,230,0.0,4.0,88,0.00,,,0.00,,2013-04-04 13:02:00,
2013-04-04 08:12:00,31.0,28.0,30.14,SW,230,0.0,4.0,88,0.00,,,0.00,,2013-04-04 13:12:00,
2013-04-04 08:22:00,32.0,29.0,30.14,SW,230,1.0,5.0,88,0.00,,,0.00,,2013-04-04 13:22:00,
2013-04-04 08:32:00,34.0,30.0,30.15,WSW,238,3.0,8.0,86,0.00,,,0.00,,2013-04-04 13:32:00,
2013-04-04 08:42:00,34.0,30.0,30.15,WSW,238,3.0,8.0,86,0.00,,,0.00,,2013-04-04 13:42:00,
2013-04-04 08:53:00,36.0,32.0,30.14,SW,223,5.0,10.0,85,0.00,,,0.00,,2013-04-04 13:53:00,
2013-04-04 09:03:00,39.0,34.0,30.14,WSW,239,4.0,10.0,82,0.00,,,0.00,,2013-04-04 14:03:00,
2013-04-04 09:12:00,39.0,34.0,30.14,WSW,239,4.0,10.0,82,0.00,,,0.00,,2013-04-04 14:12:00,
2013-04-04 09:22:00,41.0,35.0,30.13,SW,233,6.0,11.0,80,0.00,,,0.00,,2013-04-04 14:22:00,
2013-04-04 09:32:00,43.0,37.0,30.13,WSW,256,7.0,13.0,78,0.00,,,0.00,,2013-04-04 14:32:00,
2013-04-04 09:42:00,43.0,37.0,30.13,WSW,256,7.0,13.0,78,0.00,,,0.00,,2013-04-04 14:42:00,
2013-04-04 09:53:00,43.0,36.0,30.12,SW,218,5.0,11.0,76,0.00,,,0.00,,2013-04-04 14:53:00,
2013-04-04 10:02:00,45.0,37.0,30.12,West,261,11.0,14.0,72,0.00,,,0.00,,2013-04-04 15:02:00,
2013-04-04 10:12:00,45.0,37.0,30.12,West,261,11.0,14.0,72,0.00,,,0.00,,2013-04-04 15:12:00,
2013-04-04 10:22:00,46.0,37.0,30.11,SW,234,8.0,14.0,72,0.00,,,0.00,,2013-04-04 15:22:00,
2013-04-04 10:33:00,46.0,37.0,30.11,SSW,213,5.0,15.0,70,0.00,,,0.00,,2013-04-04 15:33:00,
2013-04-04 10:43:00,46.0,37.0,30.11,SSW,213,5.0,15.0,70,0.00,,,0.00,,2013-04-04 15:43:00,
2013-04-04 10:53:00,48.0,38.0,30.11,West,279,7.0,12.0,68,0.00,,,0.00,,2013-04-04 15:53:00,
2013-04-04 11:03:00,49.0,38.0,30.10,WSW,257,5.0,15.0,65,0.00,,,0.00,,2013-04-04 16:03:00,
2013-04-04 11:12:00,49.0,38.0,30.10,WSW,257,5.0,15.0,65,0.00,,,0.00,,2013-04-04 16:12:00,
2013-04-04 11:23:00,51.0,38.0,30.09,SW,222,7.0,11.0,62,0.00,,,0.00,,2013-04-04 16:23:00,
2013-04-04 11:32:00,52.0,38.0,30.09,WSW,238,6.0,13.0,59,0.00,,,0.00,,2013-04-04 16:32:00,
2013-04-04 11:42:00,52.0,38.0,30.09,WSW,238,6.0,13.0,59,0.00,,,0.00,,2013-04-04 16:42:00,
2013-04-04 11:53:00,53.0,39.0,30.10,NW,314,10.0,12.0,58,0.00,,,0.00,,2013-04-04 16:53:00,
2013-04-04 12:02:00,54.0,39.0,30.09,NW,316,6.0,16.0,56,0.00,,,0.00,,2013-04-04 17:02:00,
2013-04-04 12:13:00,54.0,39.0,30.09,NW,316,6.0,16.0,56,0.00,,,0.00,,2013-04-04 17:13:00,
2013-04-04 12:22:00,55.0,39.0,30.09,WSW,256,5.0,16.0,54,0.00,,,0.00,,2013-04-04 17:22:00,
2013-04-04 12:33:00,55.0,39.0,30.09,West,260,6.0,12.0,54,0.00,,,0.00,,2013-04-04 17:33:00,
2013-04-04 12:42:00,55.0,39.0,30.09,West,260,6.0,12.0,54,0.00,,,0.00,,2013-04-04 17:42:00,
2013-04-04 12:52:00,55.0,39.0,30.09,WSW,253,4.0,10.0,55,0.00,,,0.00,,2013-04-04 17:52:00,
2013-04-04 13:02:00,56.0,39.0,30.08,WNW,289,4.0,11.0,53,0.00,,,0.00,,2013-04-04 18:02:00,
2013-04-04 13:12:00,56.0,39.0,30.08,WNW,289,4.0,11.0,53,0.00,,,0.00,,2013-04-04 18:12:00,
2013-04-04 13:22:00,57.0,41.0,30.08,West,280,4.0,11.0,55,0.00,,,0.00,,2013-04-04 18:22:00,
2013-04-04 13:32:00,58.0,40.0,30.07,NW,312,5.0,13.0,51,0.00,,,0.00,,2013-04-04 18:32:00,
2013-04-04 13:42:00,58.0,40.0,30.07,NW,312,5.0,13.0,51,0.00,,,0.00,,2013-04-04 18:42:00,
2013-04-04 13:52:00,59.0,41.0,30.07,WNW,294,8.0,14.0,51,0.00,,,0.00,,2013-04-04 18:52:00,
2013-04-04 14:02:00,58.0,40.0,30.07,North,355,8.0,12.0,51,0.00,,,0.00,,2013-04-04 19:02:00,
2013-04-04 14:12:00,58.0,40.0,30.07,North,355,8.0,12.0,51,0.00,,,0.00,,2013-04-04 19:12:00,
2013-04-04 14:22:00,58.0,39.0,30.06,NNW,327,5.0,15.0,50,0.00,,,0.00,,2013-04-04 19:22:00,
2013-04-04 14:32:00,58.0,39.0,30.06,NNW,336,4.0,12.0,49,0.00,,,0.00,,2013-04-04 19:32:00,
2013-04-04 14:42:00,58.0,39.0,30.06,NNW,336,4.0,12.0,49,0.00,,,0.00,,2013-04-04 19:42:00,
2013-04-04 14:52:00,59.0,40.0,30.06,NW,315,5.0,9.0,49,0.00,,,0.00,,2013-04-04 19:52:00,
2013-04-04 15:03:00,59.0,40.0,30.05,NNW,334,6.0,10.0,50,0.00,,,0.00,,2013-04-04 20:03:00,
2013-04-04 15:12:00,59.0,40.0,30.05,NNW,334,6.0,10.0,50,0.00,,,0.00,,2013-04-04 20:12:00,
2013-04-04 15:22:00,60.0,40.0,30.05,North,350,5.0,11.0,48,0.00,,,0.00,,2013-04-04 20:22:00,
2013-04-04 15:32:00,62.0,41.0,30.04,North,5,1.0,9.0,46,0.00,,,0.00,,2013-04-04 20:32:00,
2013-04-04 15:42:00,62.0,41.0,30.04,North,5,1.0,9.0,46,0.00,,,0.00,,2013-04-04 20:42:00,
2013-04-04 15:53:00,62.0,42.0,30.03,NNW,338,2.0,9.0,47,0.00,,,0.00,,2013-04-04 20:53:00,
2013-04-04 16:02:00,63.0,41.0,30.03,North,355,4.0,11.0,45,0.00,,,0.00,,2013-04-04 21:02:00,
2013-04-04 16:12:00,63.0,41.0,30.03,North,355,4.0,11.0,45,0.00,,,0.00,,2013-04-04 21:12:00,
2013-04-04 16:22:00,63.0,41.0,30.02,NE,56,2.0,6.0,45,0.00,,,0.00,,2013-04-04 21:22:00,
2013-04-04 16:32:00,64.0,40.0,30.02,NE,44,3.0,12.0,42,0.00,,,0.00,,2013-04-04 21:32:00,
2013-04-04 16:43:00,64.0,40.0,30.02,NE,44,3.0,12.0,42,0.00,,,0.00,,2013-04-04 21:43:00,
2013-04-04 16:53:00,64.0,41.0,30.05,NE,51,3.0,9.0,43,0.00,,,0.00,,2013-04-04 21:53:00,
2013-04-04 17:03:00,65.0,41.0,30.05,North,5,3.0,9.0,41,0.00,,,0.00,,2013-04-04 22:03:00,
2013-04-04 17:12:00,65.0,41.0,30.05,North,5,3.0,9.0,41,0.00,,,0.00,,2013-04-04 22:12:00,
2013-04-04 17:23:00,65.0,41.0,30.05,NNE,15,5.0,13.0,42,0.00,,,0.00,,2013-04-04 22:23:00,
2013-04-04 17:33:00,64.0,40.0,30.05,NE,56,4.0,9.0,42,0.00,,,0.00,,2013-04-04 22:33:00,
2013-04-04 17:42:00,64.0,40.0,30.05,NE,56,4.0,9.0,42,0.00,,,0.00,,2013-04-04 22:42:00,
2013-04-04 17:53:00,64.0,41.0,30.05,North,5,4.0,8.0,43,0.00,,,0.00,,2013-04-04 22:53:00,
2013-04-04 18:02:00,63.0,39.0,30.06,NE,44,6.0,11.0,41,0.00,,,0.00,,2013-04-04 23:02:00,
2013-04-04 18:12:00,63.0,39.0,30.06,NE,44,6.0,11.0,41,0.00,,,0.00,,2013-04-04 23:12:00,
2013-04-04 18:22:00,63.0,39.0,30.06,North,360,2.0,10.0,41,0.00,,,0.00,,2013-04-04 23:22:00,
2013-04-04 18:32:00,63.0,40.0,30.06,NNW,337,5.0,9.0,42,0.00,,,0.00,,2013-04-04 23:32:00,
2013-04-04 18:42:00,63.0,40.0,30.06,NNW,337,5.0,9.0,42,0.00,,,0.00,,2013-04-04 23:42:00,
2013-04-04 18:52:00,62.0,38.0,30.06,NE,38,4.0,6.0,41,0.00,,,0.00,,2013-04-04 23:52:00,
2013-04-04 19:02:00,62.0,39.0,30.06,NE,39,2.0,4.0,42,0.00,,,0.00,,2013-04-05 00:02:00,
2013-04-04 19:12:00,62.0,39.0,30.06,NE,39,2.0,4.0,42,0.00,,,0.00,,2013-04-05 00:12:00,
2013-04-04 19:22:00,62.0,39.0,30.06,NNE,26,2.0,4.0,42,0.00,,,0.00,,2013-04-05 00:22:00,
2013-04-04 19:32:00,60.0,39.0,30.06,NNE,20,1.0,5.0,45,0.00,,,0.00,,2013-04-05 00:32:00,
2013-04-04 19:42:00,60.0,39.0,30.06,NNE,20,1.0,5.0,45,0.00,,,0.00,,2013-04-05 00:42:00,
2013-04-04 19:52:00,59.0,39.0,30.07,ENE,61,0.0,1.0,47,0.00,,,0.00,,2013-04-05 00:52:00,
2013-04-04 20:02:00,58.0,36.0,30.07,NE,37,0.0,5.0,43,0.00,,,0.00,,2013-04-05 01:02:00,
2013-04-04 20:12:00,58.0,36.0,30.07,NE,37,0.0,5.0,43,0.00,,,0.00,,2013-04-05 01:12:00,
2013-04-04 20:22:00,56.0,34.0,30.07,North,5,2.0,7.0,43,0.00,,,0.00,,2013-04-05 01:22:00,
2013-04-04 20:32:00,55.0,33.0,30.08,North,360,1.0,5.0,44,0.00,,,0.00,,2013-04-05 01:32:00,
2013-04-04 20:42:00,55.0,33.0,30.08,North,360,1.0,5.0,44,0.00,,,0.00,,2013-04-05 01:42:00,
2013-04-04 20:53:00,54.0,33.0,30.08,NNE,26,0.0,3.0,45,0.00,,,0.00,,2013-04-05 01:53:00,
2013-04-04 21:03:00,52.0,32.0,30.08,NE,35,0.0,2.0,46,0.00,,,0.00,,2013-04-05 02:03:00,
2013-04-04 21:12:00,52.0,32.0,30.08,NE,35,0.0,2.0,46,0.00,,,0.00,,2013-04-05 02:12:00,
2013-04-04 21:22:00,51.0,33.0,30.09,NE,35,0.0,0.0,49,0.00,,,0.00,,2013-04-05 02:22:00,
2013-04-04 21:32:00,49.0,32.0,30.09,NE,34,0.0,1.0,51,0.00,,,0.00,,2013-04-05 02:32:00,
2013-04-04 21:42:00,49.0,32.0,30.09,NE,34,0.0,1.0,51,0.00,,,0.00,,2013-04-05 02:42:00,
2013-04-04 21:52:00,48.0,34.0,30.10,NE,34,0.0,0.0,57,0.00,,,0.00,,2013-04-05 02:52:00,
2013-04-04 22:02:00,47.0,33.0,30.10,NE,34,1.0,3.0,58,0.00,,,0.00,,2013-04-05 03:02:00,
2013-04-04 22:12:00,47.0,33.0,30.10,NE,34,1.0,3.0,58,0.00,,,0.00,,2013-04-05 03:12:00,
2013-04-04 22:22:00,47.0,33.0,30.11,North,355,0.0,5.0,59,0.00,,,0.00,,2013-04-05 03:22:00,
2013-04-04 22:32:00,47.0,33.0,30.11,North,355,0.0,2.0,57,0.00,,,0.00,,2013-04-05 03:32:00,
2013-04-04 22:43:00,47.0,33.0,30.11,North,355,0.0,2.0,57,0.00,,,0.00,,2013-04-05 03:43:00,
2013-04-04 22:53:00,46.0,32.0,30.11,North,5,1.0,3.0,58,0.00,,,0.00,,2013-04-05 03:53:00,
2013-04-04 23:02:00,47.0,33.0,30.11,NE,45,3.0,6.0,58,0.00,,,0.00,,2013-04-05 04:02:00,
2013-04-04 23:12:00,47.0,33.0,30.11,NE,45,3.0,6.0,58,0.00,,,0.00,,2013-04-05 04:12:00,
2013-04-04 23:22:00,47.0,33.0,30.11,NE,43,2.0,6.0,58,0.00,,,0.00,,2013-04-05 04:22:00,
2013-04-04 23:32:00,46.0,32.0,30.11,NE,42,0.0,5.0,59,0.00,,,0.00,,2013-04-05 04:32:00,
2013-04-04 23:42:00,46.0,32.0,30.11,NE,42,0.0,5.0,59,0.00,,,0.00,,2013-04-05 04:42:00,
2013-04-04 23:52:00,45.0,32.0,30.11,NE,42,2.0,4.0,59,0.00,,,0.00,,2013-04-05 04:52:00,